Tracking 31027 objects as of 19-Jul-2025
HD Live streaming from Space Station
objects crossing your sky now

COSMOS 1408 DEB

Track COSMOS 1408 DEB now!
10-day predictions


NORAD ID: 50404
Int'l Code: 1982-092ADS
Perigee: 432.4 km
Apogee: 786.9 km
Inclination: 82.2 °
Period: 96.7 minutes
Semi major axis: 6980 km
RCS: Unknown
Launch date: September 16, 1982
Source: Commonwealth of Independent States (former USSR) (CIS)
Launch site: PLESETSK MISSILE AND SPACE COMPLEX (PKMTR)

Note: This is SATELLITE DEBRIS
Your satellite tracking list
COSMOS 1743
Track 1 satellite(s)




NASA's NSSDC Master Catalog

Two Line Element Set (TLE):
1 50404U 82092ADS 25199.48871583  .00017959  00000-0  10477-2 0  9996
2 50404  82.2218   2.1618 0253908 333.0782  25.7440 14.88538992189882
Source of the keplerian elements: AFSPC